Regional Weather Roundup
Issued by NWS

Home | Current Version | Previous Version | Graphics & Text | Print | Product List | Glossary On
Versions: 1 2 3 4 5 6 7 8 9 10 11 12 13 14 15 16 17 18 19 20 21 22 23 24 25 26 27 28 29 30 31 32 33 34 35 36 37 38 39 40 41 42 43 44 45 46 47 48 49 50
000
ASUS45 KTFX 262304
RWRMT
MONTANA HOURLY WEATHER ROUNDUP
NATIONAL WEATHER SERVICE GREAT FALLS MT
404 PM MST THU FEB 26 2015

NOTE: "FAIR" INDICATES FEW OR NO CLOUDS BELOW 12000 FEET WITH NO
SIGNIFICANT WEATHER AND/OR OBSTRUCTIONS TO VISIBILITY.

* THESE STATIONS ARE NOT UNDER NWS QUALITY CONTROL. THEY DO NOT
   REPORT WEATHER SUCH AS PRECIPITATION OR FOG.

MTZ001>007-043-270000-
WEST OF THE DIVIDE
CITY           SKY/WX    TMP DP  RH WIND       PRES   REMARKS
KALISPELL      SUNNY     37  16  42 CALM      30.06F
MISSOULA       PTCLDY    37  16  42 E9        30.05F WCI  30
BUTTE          PTCLDY    23  12  63 S18       29.99F WCI   9
MULLAN PASS    LGT SNOW  28  18  66 CALM      29.93F
* ANACONDA     PTCLDY    19  16  88 N5         N/A   WCI  12
* ESSEX        N/A       30  13  49 SE3        N/A
* LINCOLN      N/A       29   8  41 NE7G12     N/A   WCI  22
* LOOKOUT PASS N/A       34  18  52 N/A        N/A
* POLSON       N/A       36  20  52 N3         N/A
* RONAN APT    SUNNY     36  21  54 W8         N/A   WCI  30
* SEELEY LAKE  N/A       36  11  35 W2         N/A
* THOMP F APT  PTCLDY    31   7  36 N7G17      N/A   WCI  24
$$

MTZ008-052>055-270000-
SOUTHWEST MONTANA
CITY           SKY/WX    TMP DP  RH WIND       PRES   REMARKS
BOZEMAN        CLOUDY    21  10  62 CALM      30.11F
DILLON         PTCLDY    27  12  53 NE13      29.99F WCI  16
* W YELLOWSTON PTCLDY    28   6  39 N6G11      N/A   WCI  21
* THREE FORKS  SUNNY     23  12  63 N/A        N/A
* BOULDER HILL N/A       16   6  64 N3         N/A
* MONIDA PASS  N/A       25   6  44 N12G17     N/A   WCI  14
* RAYNOLDS PAS N/A       11  10  96 N16        N/A   WCI  -6
* WHITEHALL    N/A       26   9  48 E11G20     N/A   WCI  16
* WISE RIVER   N/A       27  13  55 SE13G21    N/A   WCI  16
$$

MTZ009>010-012-014-046-048-049-054-270000-
EAST SLOPES AND CENTRAL MONTANA
CITY           SKY/WX    TMP DP  RH WIND       PRES   REMARKS
CUT BANK       CLOUDY    12   7  80 SE15      30.16F WCI  -4
GREAT FALLS    SUNNY     16   7  67 E12       30.19F WCI   3
HELENA         SUNNY     23   9  55 SE8       30.13F WCI  14
* DEARBORN     N/A       17   7  65 N/A        N/A
* EAST GLACIER N/A        8   5  87 SE6        N/A   WCI  -2
* MONARCH      N/A        9  -1  63 NE7        N/A   WCI  -2
* PENDROY      N/A       11   6  80 S12G19     N/A   WCI  -4
* ROGERS PASS  N/A       12   5  73 S2         N/A
* SWEET GRASS  N/A       12   5  73 S22G30     N/A   WCI  -7
$$

MTZ011-013-016-021-035-040-045-047-050-051-270000-
NORTH CENTRAL MONTANA
CITY           SKY/WX    TMP DP  RH WIND       PRES   REMARKS
HAVRE          SUNNY     19   1  45 SE10      30.32F WCI   8
LEWISTOWN      SUNNY     12   3  67 E12       30.20F WCI  -2
* N BAR RANCH  SUNNY     10   0  64 S7        30.22F WCI  -1
* CHESTER      N/A       16   3  56 SE10G17    N/A   WCI   4
* DENTON       N/A       14   1  56 SE11       N/A   WCI   1
* GEYSER       N/A       14   3  61 E10        N/A   WCI   1
* JUDITH GAP   N/A        9   3  76 SE13       N/A   WCI  -7
* LOMA         N/A       16   7  67 E12        N/A   WCI   3
$$

MTZ017>020-022>027-061-062-270000-
NORTHEAST MONTANA
CITY           SKY/WX    TMP DP  RH WIND       PRES   REMARKS
GLASGOW        SUNNY     12 -11  34 S10       30.46F WCI  -1
GLENDIVE       SUNNY     12  -6  44 CALM      30.47S
JORDAN         SUNNY     14  -4  44 SE7       30.41F WCI   4
SIDNEY         SUNNY     12  -6  44 NE6       30.55S WCI   2
WOLF POINT     SUNNY     14  -6  40 CALM      30.50F
* BEAVER HILL  N/A       10  -6  48 NW4        N/A
* CIRCLE       N/A       15  -1  49 N/A        N/A
* LINDSAY DVD  N/A       11  -5  48 E6         N/A   WCI   1
* NAVAJO       N/A       11  -6  46 SW4        N/A
* SACO         N/A       13  -6  42 SE9        N/A   WCI   1
$$

MTZ028>042-056>058-270000-
SOUTHCENTRAL AND SOUTHEAST MONTANA
CITY           SKY/WX    TMP DP  RH WIND       PRES   REMARKS
BAKER          SUNNY     12  -2  53 CALM      30.42S
BILLINGS       PTCLDY    14   1  56 SE12      30.28F
LIVINGSTON     SUNNY     12   3  67 E16       30.15F WCI  -5
MILES CITY     SUNNY     12  -4  48 S6        30.42F WCI   2
* LAUREL APT   SUNNY     12  -2  53 E5         N/A   WCI   4
* ROUNDUP APT  SUNNY     16  -2  45 NE6        N/A   WCI   7
* ALZADA       N/A        7  -6  55 NW3        N/A
* HYSHAM       N/A       10  -5  50 E8         N/A   WCI  -2
* LAME DEER    N/A        3  -4  72 SE7        N/A   WCI  -9
* REED POINT   N/A       14   5  67 E6         N/A   WCI   5
$$

REGIONAL REPORTS...DAKOTAS
CITY           SKY/WX    TMP DP  RH WIND       PRES   REMARKS
WILLISTON      SUNNY      9  -6  50 NW7       30.53F WCI  -2
DICKINSON      SUNNY     10  -2  58 N6        30.43S
BEACH          SUNNY     10  -2  58 NW3       30.44S
CROSBY         SUNNY      3  -4  72 NW6       30.53F WCI  -8
WATFORD CITY   SUNNY      9  -4  55 NW6       30.49F WCI  -1
BISMARCK       SUNNY      9  -6  50 N12       30.53S WCI  -6
GRAND FORKS    SUNNY      9  -6  50 NW10      30.52S WCI  -5
FARGO          SUNNY      7  -4  60 NW10      30.53S WCI  -7
BUFFALO SD     SUNNY     10  -6  48 N5        30.34S WCI   1
RAPID CITY     SUNNY      9  -2  61 N12       30.39S WCI  -6
$$

REGIONAL REPORTS...WYOMING/IDAHO/WASHINGTON
CITY           SKY/WX    TMP DP  RH WIND       PRES   REMARKS
GILLETTE       SUNNY      9  -6  50 NE3       30.24F
SHERIDAN       CLOUDY    10   1  67 S6        30.27F
CODY           PTSUNNY   12   7  80 NE8       30.13S
YELLOWSTONE LA PTCLDY    21  -2  36 VRB7      29.88F WCI  12
SALMON         PTCLDY    39  18  43 CALM      29.94F
MULLAN PASS    LGT SNOW  28  18  66 CALM      29.93S
SAND POINT     LGT RAIN  37  32  82 W3        30.05F
SPOKANE        CLOUDY    43  30  60 NE6       30.01F

$$



USA.gov is the U.S. government's official web portal to all federal, state and local government web resources and services.